Estación de Codegua
Ultimos registro cada 15 minutos 54
| N° | Estación | Fecha / Hora | Temperatura | Humedad | Lluvia | Velocidad | Dirección | Radiación | Presion |
| 54 | Codegua | 05-05-2026 13:15 | 19,9 | 47,7 | 0 | 0 | 159 | 151,9 | 953,4 |
| 53 | Codegua | 05-05-2026 13:00 | 19,7 | 48,8 | 0 | 0 | 136 | 151,9 | 953,4 |
| 52 | Codegua | 05-05-2026 12:45 | 20,8 | 48 | 0 | 0 | 117 | 194,4 | 953,3 |
| 51 | Codegua | 05-05-2026 12:30 | 20,2 | 46 | 0 | 0 | 340 | 179,4 | 953,4 |
| 50 | Codegua | 05-05-2026 12:15 | 21,1 | 42,5 | 0 | 0 | 302 | 199,4 | 953,3 |
| 49 | Codegua | 05-05-2026 12:00 | 20,7 | 43,3 | 0 | 0 | 270 | 206,9 | 953,2 |
| 48 | Codegua | 05-05-2026 11:45 | 20,2 | 44,6 | 0 | 0 | 306 | 255,6 | 953,2 |
| 47 | Codegua | 05-05-2026 11:30 | 20,2 | 45,6 | 0 | 0 | 309 | 284,4 | 953,4 |
| 46 | Codegua | 05-05-2026 11:15 | 18,5 | 52,5 | 0 | 0 | 329 | 200,6 | 953,5 |
| 45 | Codegua | 05-05-2026 11:00 | 17,5 | 55,7 | 0 | 0 | 31 | 140,6 | 953,5 |
| 44 | Codegua | 05-05-2026 10:45 | 16,6 | 57,3 | 0 | 0 | 107 | 119,4 | 953,8 |
| 43 | Codegua | 05-05-2026 10:30 | 15,6 | 64,5 | 0 | 0 | 108 | 89,4 | 954 |
| 42 | Codegua | 05-05-2026 10:15 | 14,9 | 71,6 | 0 | 0 | 108 | 85,6 | 954 |
| 41 | Codegua | 05-05-2026 10:00 | 14,1 | 72,3 | 0 | 0 | 112 | 76,9 | 954 |
| 40 | Codegua | 05-05-2026 09:45 | 13,6 | 70 | 0 | 0 | 117 | 60,6 | 954,3 |
| 39 | Codegua | 05-05-2026 09:30 | 13,2 | 71,7 | 0 | 0 | 118 | 68,1 | 954,4 |
| 38 | Codegua | 05-05-2026 09:15 | 12,9 | 72,9 | 0 | 0 | 119 | 83,1 | 954,5 |
| 37 | Codegua | 05-05-2026 09:00 | 12,3 | 74,4 | 0 | 0 | 119 | 50,6 | 954,8 |
| 36 | Codegua | 05-05-2026 08:45 | 11,7 | 76 | 0 | 0 | 118 | 59,4 | 955,2 |
| 35 | Codegua | 05-05-2026 08:30 | 11,3 | 77 | 0 | 0 | 118 | 45,6 | 955,3 |
| 34 | Codegua | 05-05-2026 08:15 | 11,4 | 74,7 | 0 | 0 | 118 | 21,9 | 955,7 |
| 33 | Codegua | 05-05-2026 08:00 | 11,2 | 75,1 | 0 | 0 | 173 | 16,9 | 956,4 |
| 32 | Codegua | 05-05-2026 07:45 | 10,8 | 77,5 | 0 | 0 | 125 | 3,1 | 956,7 |
| 31 | Codegua | 05-05-2026 07:30 | 10,3 | 78,8 | 0 | 0 | 97 | 0,6 | 956,8 |
| 30 | Codegua | 05-05-2026 07:15 | 10 | 81,7 | 0 | 0 | 97 | 0,6 | 957,4 |
| 29 | Codegua | 05-05-2026 07:00 | 10 | 81,4 | 0 | 0 | 97 | 0,6 | 957,3 |
| 28 | Codegua | 05-05-2026 06:45 | 9,8 | 82 | 0 | 0 | 97 | 0,6 | 957,3 |
| 27 | Codegua | 05-05-2026 06:30 | 9,9 | 82,4 | 0 | 0 | 97 | 0,6 | 957,2 |
| 26 | Codegua | 05-05-2026 06:15 | 9,9 | 81,9 | 0 | 0 | 97 | 0,6 | 956,8 |
| 25 | Codegua | 05-05-2026 06:00 | 10,3 | 79,3 | 0 | 0 | 95 | 0,6 | 956,3 |
| 24 | Codegua | 05-05-2026 05:45 | 9,8 | 83,5 | 0 | 0 | 117 | 0,6 | 956,1 |
| 23 | Codegua | 05-05-2026 05:30 | 9,8 | 82,6 | 0 | 0 | 117 | 0,6 | 956,1 |
| 22 | Codegua | 05-05-2026 05:15 | 9,6 | 82,8 | 0 | 0 | 117 | 0,6 | 955,6 |
| 21 | Codegua | 05-05-2026 05:00 | 9,3 | 83,9 | 0 | 0 | 117 | 0,6 | 955,2 |
| 20 | Codegua | 05-05-2026 04:45 | 8,8 | 87,7 | 0 | 0 | 117 | 0,6 | 955,1 |
| 19 | Codegua | 05-05-2026 04:30 | 8,9 | 86,6 | 0 | 0 | 117 | 0,6 | 955,1 |
| 18 | Codegua | 05-05-2026 04:15 | 8,8 | 86,4 | 0 | 0 | 112 | 0,6 | 955 |
| 17 | Codegua | 05-05-2026 04:00 | 8,4 | 87,1 | 0 | 0 | 108 | 0,6 | 955 |
| 16 | Codegua | 05-05-2026 03:45 | 9,1 | 84,2 | 0 | 0 | 108 | 0,6 | 955,2 |
| 15 | Codegua | 05-05-2026 03:30 | 9,2 | 86,5 | 0 | 0 | 108 | 0,6 | 954,8 |
| 14 | Codegua | 05-05-2026 03:15 | 9 | 87,9 | 0 | 0 | 108 | 0,6 | 954,9 |
| 13 | Codegua | 05-05-2026 03:00 | 9,2 | 87,2 | 0 | 0 | 108 | 0,6 | 955,2 |
| 12 | Codegua | 05-05-2026 02:45 | 8,9 | 87,4 | 0 | 0 | 108 | 0,6 | 955,3 |
| 11 | Codegua | 05-05-2026 02:30 | 9 | 87,6 | 0 | 0 | 108 | 0,6 | 955,5 |
| 10 | Codegua | 05-05-2026 02:15 | 9,3 | 85,9 | 0 | 0 | 108 | 0,6 | 955,6 |
| 9 | Codegua | 05-05-2026 02:00 | 9,2 | 86,5 | 0 | 0 | 108 | 0,6 | 955,8 |
| 8 | Codegua | 05-05-2026 01:45 | 9 | 85,9 | 0 | 0 | 108 | 0,6 | 955,9 |
| 7 | Codegua | 05-05-2026 01:30 | 8,9 | 85,8 | 0 | 0 | 108 | 0,6 | 955,9 |
| 6 | Codegua | 05-05-2026 01:15 | 9,1 | 84,5 | 0 | 0 | 108 | 0,6 | 956 |
| 5 | Codegua | 05-05-2026 01:00 | 8,3 | 87,1 | 0 | 0 | 108 | 0,6 | 956,2 |
| 4 | Codegua | 05-05-2026 00:45 | 8,4 | 86,6 | 0 | 0 | 108 | 0,6 | 956,5 |
| 3 | Codegua | 05-05-2026 00:30 | 8,2 | 87,5 | 0 | 0 | 108 | 0,6 | 956,7 |
| 2 | Codegua | 05-05-2026 00:15 | 8,1 | 87,2 | 0 | 0 | 108 | 0,6 | 956,3 |
| 1 | Codegua | 05-05-2026 00:00 | 7,4 | 89,2 | 0 | 0 | 108 | 0,6 | 956,4 |